Regional Weather Roundup
Issued by NWS Glasgow, MT

Home | Current Version | Previous Version | Text Only | Print | Product List | Glossary On
Versions: 1 2 3 4 5 6 7 8 9 10 11 12 13 14 15 16 17 18 19 20 21 22 23 24 25 26 27 28 29 30 31 32 33 34 35 36 37 38 39 40 41 42 43 44 45 46 47 48 49 50
853
ASUS45 KGGW 230615
RWRGGW
HOURLY REGIONAL WEATHER ROUNDUP FOR NORTHEAST MONTANA
NATIONAL WEATHER SERVICE GLASGOW MONTANA
1100 PM MST WED FEB 22 2017

NOTE: "FAIR" INDICATES FEW OR NO CLOUDS BELOW 12,000 FEET WITH NO
SIGNIFICANT WEATHER AND/OR OBSTRUCTIONS TO VISISBILITY.

NORTHEAST MONTANA


CITY           SKY/WX    TMP DP  RH WIND       PRES   REMARKS
GLASGOW        CLOUDY    27  25  92 CALM      29.99S FOG
6HR MIN TEMP:  24; 6HR MAX TEMP:  32;

PLENTYWOOD       N/A     31  27  85 W2          N/A
WOLF POINT     CLOUDY    25  22  88 CALM      30.01S
JORDAN           N/A     27  24  89 CALM      29.97F
SIDNEY         LGT SNOW  28  26  92 N3        30.02S FOG
GLENDIVE       FLURRIES  27  26  96 N5        29.99F

FORT PECK REPORTS


CITY           SKY/WX    TMP DP  RH WIND       PRES   REMARKS
FORT PECK        N/A     27  27 100 SE3         N/A
THE PINES        N/A     27  26  96 CALM        N/A

SOUTHEAST MONTANA


CITY           SKY/WX    TMP DP  RH WIND       PRES   REMARKS
BILLINGS       CLOUDY    30  28  92 NE9       29.88F
MILES CITY     CLOUDY    29  24  82 NE7       29.95F
BAKER          CLOUDY    27  24  89 NE8       29.94F
LIVINGSTON     FLURRIES  30  25  81 E13       29.83F

CENTRAL MONTANA


CITY           SKY/WX    TMP DP  RH WIND       PRES   REMARKS
HAVRE          LGT SNOW  30  29  96 N7        29.99R FOG
LEWISTOWN      CLOUDY    27  25  92 E6        29.90S
GREAT FALLS    CLOUDY    30  25  81 NW3       29.94F
CUT BANK       LGT SNOW  26  24  92 NE15      29.96R FOG
HELENA         CLOUDY    32  26  78 NW8       29.88F
BUTTE          CLOUDY    22  20  92 S3        29.81F
BOZEMAN        CLOUDY    25  22  88 NW7       29.84F

WESTERN MONTANA


CITY           SKY/WX    TMP DP  RH WIND       PRES   REMARKS
MISSOULA       CLOUDY    28  27  96 SE5       29.92F
KALISPELL      NOT AVBL

NORTH DAKOTA


CITY           SKY/WX    TMP DP  RH WIND       PRES   REMARKS
WILLISTON      CLOUDY    28  25  88 SW6       30.01S
DICKINSON      CLOUDY    25  22  88 N6        29.94F
MINOT          CLOUDY    33  28  81 W9        29.97S
BISMARCK       CLOUDY    31  25  78 N5        30.00S

SOUTHERN SASKATCHEWAN


CITY           SKY/WX    TMP DP  RH WIND       PRES   REMARKS
REGINA         CLOUDY    27  21  80 N15       30.02R
ESTEVAN        CLOUDY    30  28  93 W7        29.98R
SWIFT CURRENT  LGT SNOW  23  21  93 N13       30.00S





USA.gov is the U.S. government's official web portal to all federal, state and local government web resources and services.